Showing default

NEXTSAT-1, 43811

Orbit data source: Space-Track

NEXTSAT-1, 43811 is a payload satellite owned by KAIST (KR) in SSO that was launched on Mon, 03 Dec 2018 UTC via an FALCON 9 launch vehicle from the Air Force Western Test Range (AFWTR). Payload-class satellites include a variety of spacecraft equipped with specific instruments for various scientific and technological missions. These include communications satellites like Starlink; space stations such as the ISS; scientific satellites like the Hubble; Earth observation satellites from companies like Planet Labs, Umbra, and HawkEye 360; GPS; miniature CubeSats for education and research; and military/defense satellites.

Loading next visibility...
Identifier
43811, 2018-099BF
Orbit
SSO
Country
Flag of KRKR / SKOR
Related business
Manufacturer
SatRec Initiative
Mission
Operational Civil Ast/Tech
Bus & Motor
NEXTSAT, Unknown motor
Mass
~100 kg wet, ~100 kg dry
Launch date (UTC)
2018-12-03 (8 years ago)
Launch vehicle
FALCON 9
Launch site
Air Force Western Test Range (AFWTR)
Object type
Payload
Rocket body
Debris
Shape & HBR
Box + Cyl + 1 Pan, 1.0 m
Radar Cross Section
0.908 m², Medium (>0.1 m² and < 1m²)

Expand to show TLE details & history
Last TLE update: 2 days ago

TLE from 2 days ago
0 NEXTSAT-1
1 43811U 18099BF  26171.37638027  .00001978  00000-0  13014-3 0  9994
2 43811  97.4066 213.9812 0011099 333.3861  26.6797 15.08639686412369
Epoch: 2026-06-20T09:01Z
TLE epoch observation values (Epoch: 2026-06-20T09:01:59.255Z)
Latitude
-0°
Longitude
169.89241°
Altitude
536.57 km
Speed
7.598 km/s
True Right ascension
14h 15m 55s
True Declination
0° 00' 00"
Sunlit
Object was in full shadow at epoch
Visualization orbit readout
Latitude
Unknown
Longitude
Unknown
Altitude
Unknown
Speed
Unknown
Apparent Right ascension
Unknown
Apparent Declination
Unknown
Sunlit
N/A
Visualization observer readout
Local Sidereal Time
21:40:44
Azimuth
Unknown
Elevation
Unknown
Doppler factor
Unknown
Orbital elements
Apogee altitude
545.012 km
Perigee altitude
529.661 km
Semi-major axis
6,915.474 km
Eccentricity
0.00111
Inclination
97.4066°
RAAN
213.9812°
Arg. of periapsis
333.3861°
True anomaly
26.73688°
Mean anomaly
26.6797°
Eccentric anomaly
26.70828°
Mean motion
3.77407 °/min
Orbital period
95.39 mins
BSTAR
0.00013014
Loading maneuver chart data...
Computing Atmospheric mass density...
Loading historical data...
Loading historical data...
Loading historical data...
Loading historical data...
Loading historical data...
Loading historical data...
Loading historical data...

Documentation

Showing up to 5 results
|